Hourly Data Report for June 03, 2021

WESTERN HEAD
NOVA SCOTIA
Current Station Operator: ECCC - MSC

43°59'24.070" N
64°39'51.008" W
10.10 m
8206240
71411
WWE

Download Data

Hourly Data (June 2021)
Hourly Data Report for June 3, 2021
TIME
LST
Temp Definition
°C
Dew Point Definition
°C
Rel Hum Definition
%
Precip. Amount Definition
mm

Wind Dir Definition
10's deg

Wind Spd Definition
km/h
Visibility Definition
km
Stn Press Definition
kPa
Hmdx Definition


Wind Chill Definition


Weather Definition


00:00 9.6 7.6 88 0.0 22 8   102.13     LegendNANA
01:00 9.6 8.1 90 0.0 22 12   102.12     LegendNANA
02:00 8.3 7.6 96 0.0 23 9   102.11     LegendNANA
03:00 8.0 8.0 100 0.0 23 12   102.14     LegendNANA
04:00 8.0 8.0 100 0.0 22 12   102.14     LegendNANA
05:00 7.8 7.8 100 0.0 21 10   102.16     LegendNANA
06:00 8.4 LegendMM LegendMM 0.0 22 12   102.21     LegendNANA
07:00 9.6 LegendMM LegendMM 0.0 20 9   102.22     LegendNANA
08:00 10.3 9.0 91 0.0 21 12   102.25     LegendNANA
09:00 11.7 9.7 87 0.0 21 8   102.20     LegendNANA
10:00
11:00 12.9 9.6 81 0.0 19 22   102.16     LegendNANA
12:00 14.0 10.7 80 0.0 18 28   102.13     LegendNANA
13:00 12.5 9.8 84 0.0 18 25   102.09     LegendNANA
14:00 12.3 9.7 84 0.0 19 16   102.04     LegendNANA
15:00 12.3 10.3 87 0.0 20 18   102.00     LegendNANA
16:00 12.0 10.0 88 0.0 20 20   101.97     LegendNANA
17:00 11.2 9.9 91 0.0 20 16   101.87     LegendNANA
18:00 10.8 9.6 92 0.0 21 16   101.83     LegendNANA
19:00 10.5 9.6 94 0.0 19 18   101.76     LegendNANA
20:00 9.9 9.5 98 0.0 19 12   101.68     LegendNANA
21:00 10.1 10.1 100 0.2 21 7   101.65     LegendNANA
22:00 10.4 LegendMM LegendMM 1.5 20 10   101.56     LegendNANA
23:00 10.8 LegendMM LegendMM 1.2 19 24   101.45     LegendNANA

Notes on Data Quality.

Legend

  • E = Estimated
  • M = Missing
  • NA = Not Available*
  • [empty] = Indicates an unobserved value
Date modified: